Showing default

KITSAT B, 22828

Orbit data source: Space-Track

KITSAT B, 22828 is a payload satellite owned by KAIST (KR) in SSO that was launched on Sun, 26 Sep 1993 UTC via an ARIANE 40 launch vehicle from the French Guiana (FRGUI). Payload-class satellites include a variety of spacecraft equipped with specific instruments for various scientific and technological missions. These include communications satellites like Starlink; space stations such as the ISS; scientific satellites like the Hubble; Earth observation satellites from companies like Planet Labs, Umbra, and HawkEye 360; GPS; miniature CubeSats for education and research; and military/defense satellites.

Loading next visibility...
Identifier
22828, 1993-061F
Orbit
SSO
Country
Flag of KRKR / SKOR
Related business
Manufacturer
SSTL
Mission
Non-operational Civil Com/Imaging
Bus & Motor
UOSAT, Unknown motor
Mass
50 kg wet, 50 kg dry
Launch date (UTC)
1993-09-26 (33 years ago)
Launch vehicle
ARIANE 40
Launch site
French Guiana (FRGUI)
Object type
Payload
Rocket body
Debris
Shape & HBR
Box + 1 Ant, 3.3 m
Radar Cross Section
0.632 m², Medium (>0.1 m² and < 1m²)

Expand to show TLE details & history
Last TLE update: 12 hours ago

TLE from 12 hours ago
0 KITSAT B
1 22828U 93061F   26255.65667651  .00000076  00000-0  44929-4 0  9998
2 22828  98.6776 323.0398 0010475 144.4918 215.6964 14.31819029688321
Epoch: 2026-09-12T15:45Z
TLE epoch observation values (Epoch: 2026-09-12T15:45:36.850Z)
Latitude
-0.00004°
Longitude
94.97372°
Altitude
794.687 km
Speed
7.453 km/s
True Right ascension
21h 32m 09s
True Declination
0° 00' 00"
Sunlit
Object was in full shadow at epoch
Visualization orbit readout
Latitude
Unknown
Longitude
Unknown
Altitude
Unknown
Speed
Unknown
Apparent Right ascension
Unknown
Apparent Declination
Unknown
Sunlit
N/A
Visualization observer readout
Local Sidereal Time
19:48:39
Azimuth
Unknown
Elevation
Unknown
Doppler factor
Unknown
Orbital elements
Apogee altitude
790.299 km
Perigee altitude
775.297 km
Semi-major axis
7,160.935 km
Eccentricity
0.00105
Inclination
98.6776°
RAAN
323.0398°
Arg. of periapsis
144.4918°
True anomaly
215.62644°
Mean anomaly
215.6964°
Eccentric anomaly
215.66141°
Mean motion
3.58169 °/min
Orbital period
100.51 mins
BSTAR
0.000044929
Loading maneuver chart data...
Computing Atmospheric mass density...
Loading historical data...
Loading historical data...
Loading historical data...
Loading historical data...
Loading historical data...
Loading historical data...
Loading historical data...

Documentation

Showing up to 5 results
|